Date,TemperatureHighF,TemperatureAvgF,TemperatureLowF,DewpointHighF,DewpointAvgF,DewpointLowF,HumidityHigh,HumidityAvg,HumidityLow,PressureMaxIn,PressureMinIn,WindSpeedMaxMPH,WindSpeedAvgMPH,GustSpeedMaxMPH,PrecipitationSumIn
2013-4-1,41,32,22,-100,-100,-100,0,0,100,0.00,40.00,0,-999,0,0.00
2013-4-2,47,27,18,-100,-100,-100,0,0,100,0.00,40.00,0,-999,0,0.00
2013-4-3,39,28,22,-100,-100,-100,0,0,100,0.00,40.00,0,-999,0,0.00
2013-4-4,45,29,18,-100,-100,-100,0,0,100,0.00,40.00,0,-999,0,0.00
2013-4-5,41,26,15,-100,-100,-100,0,0,100,0.00,40.00,0,-999,0,0.00
2013-4-6,34,26,19,-100,-100,-100,0,0,100,0.00,40.00,0,-999,0,0.00
2013-4-7,29,17,9,-100,-100,-100,0,0,100,0.00,40.00,0,-999,0,0.00
2013-4-8,28,15,1,-100,-100,-100,0,0,100,0.00,40.00,0,-999,0,0.00
2013-4-9,23,13,4,-100,-100,-100,0,0,100,0.00,40.00,0,-999,0,0.00
2013-4-10,19,11,6,-100,-100,-100,0,0,100,0.00,40.00,0,-999,0,0.00
2013-4-11,27,15,4,-100,-100,-100,0,0,100,0.00,40.00,0,-999,0,0.00
2013-4-12,29,16,-1,-100,-100,-100,0,0,100,0.00,40.00,0,-999,0,0.00
2013-4-13,38,19,1,-100,-100,-100,0,0,100,0.00,40.00,0,-999,0,0.00
2013-4-14,43,24,6,-100,-100,-100,0,0,100,0.00,40.00,0,-999,0,0.00
2013-4-15,46,26,12,-100,-100,-100,0,0,100,0.00,40.00,0,-999,0,0.00
2013-4-16,40,24,10,-100,-100,-100,0,0,100,0.00,40.00,0,-999,0,0.00
2013-4-17,40,23,9,-100,-100,-100,0,0,100,0.00,40.00,0,-999,0,0.00
2013-4-18,44,27,10,-100,-100,-100,0,0,100,0.00,40.00,0,-999,0,0.00
2013-4-19,45,28,13,-100,-100,-100,0,0,100,0.00,40.00,0,-999,0,0.00
2013-4-20,45,30,15,-100,-100,-100,0,0,100,0.00,40.00,0,-999,0,0.00
2013-4-21,36,29,24,-100,-100,-100,0,0,100,0.00,40.00,0,-999,0,0.00
2013-4-22,47,33,20,-100,-100,-100,0,0,100,0.00,40.00,0,-999,0,0.00
2013-4-23,42,34,29,-100,-100,-100,0,0,100,0.00,40.00,0,-999,0,0.00
2013-4-24,47,35,26,-100,-100,-100,0,0,100,0.00,40.00,0,-999,0,0.00
2013-4-25,41,32,21,-100,-100,-100,0,0,100,0.00,40.00,0,-999,0,0.00
2013-4-26,42,29,16,-100,-100,-100,0,0,100,0.00,40.00,0,-999,0,0.00
2013-4-27,42,30,18,-100,-100,-100,0,0,100,0.00,40.00,0,-999,0,0.00
2013-4-28,43,30,16,-100,-100,-100,0,0,100,0.00,40.00,0,-999,0,0.00
2013-4-29,46,32,17,-100,-100,-100,0,0,100,0.00,40.00,0,-999,0,0.00
2013-4-30,44,34,25,-100,-100,-100,0,0,100,0.00,40.00,0,-999,0,0.00
2013-5-1,49,36,25,-100,-100,-100,0,0,100,0.00,40.00,0,-999,0,0.00
2013-5-2,45,34,28,-100,-100,-100,0,0,100,0.00,40.00,0,-999,0,0.00
2013-5-3,41,35,30,-100,-100,-100,0,0,100,0.00,40.00,0,-999,0,0.00
2013-5-4,36,29,25,-100,-100,-100,0,0,100,0.00,40.00,0,-999,0,0.00
2013-5-5,47,32,21,-100,-100,-100,0,0,100,0.00,40.00,0,-999,0,0.00
2013-5-6,46,34,20,-100,-100,-100,0,0,100,0.00,40.00,0,-999,0,0.00
2013-5-7,47,37,24,-100,-100,-100,0,0,100,0.00,40.00,0,-999,0,0.00
2013-5-8,54,37,22,-100,-100,-100,0,0,100,0.00,40.00,0,-999,0,0.00
2013-5-9,53,41,25,-100,-100,-100,0,0,100,0.00,40.00,0,-999,0,0.00
2013-5-10,61,42,24,-100,-100,-100,0,0,100,0.00,40.00,0,-999,0,0.00
2013-5-11,52,41,32,-100,-100,-100,0,0,100,0.00,40.00,0,-999,0,0.00
2013-5-12,55,41,33,-100,-100,-100,0,0,100,0.00,40.00,0,-999,0,0.00
2013-5-13,53,39,32,-100,-100,-100,0,0,100,0.00,40.00,0,-999,0,0.00
2013-5-14,54,39,29,-100,-100,-100,0,0,100,0.00,40.00,0,-999,0,0.00
2013-5-15,46,33,20,-100,-100,-100,0,0,100,0.00,40.00,0,-999,0,0.00
2013-5-16,38,34,30,-100,-100,-100,0,0,100,0.00,40.00,0,-999,0,0.00
2013-5-17,44,32,26,-100,-100,-100,0,0,100,0.00,40.00,0,-999,0,0.00
2013-5-18,39,30,24,-100,-100,-100,0,0,100,0.00,40.00,0,-999,0,0.00
2013-5-19,48,32,18,-100,-100,-100,0,0,100,0.00,40.00,0,-999,0,0.00
2013-5-20,51,38,20,-100,-100,-100,0,0,100,0.00,40.00,0,-999,0,0.00
2013-5-21,57,41,30,-100,-100,-100,0,0,100,0.00,40.00,0,-999,0,0.00
2013-5-22,50,42,35,-100,-100,-100,0,0,100,0.00,40.00,0,-999,0,0.00
2013-5-23,59,44,34,-100,-100,-100,0,0,100,0.00,40.00,0,-999,0,0.00
2013-5-24,60,47,34,-100,-100,-100,0,0,100,0.00,40.00,0,-999,0,0.00
2013-5-25,61,46,28,-100,-100,-100,0,0,100,0.00,40.00,0,-999,0,0.00
2013-5-26,59,43,28,-100,-100,-100,0,0,100,0.00,40.00,0,-999,0,0.00
2013-5-27,61,46,35,-100,-100,-100,0,0,100,0.00,40.00,0,-999,0,0.00
2013-5-28,69,50,29,-100,-100,-100,0,0,100,0.00,40.00,0,-999,0,0.00
2013-5-29,68,52,36,-100,-100,-100,0,0,100,0.00,40.00,0,-999,0,0.00
2013-5-30,63,49,33,-100,-100,-100,0,0,100,0.00,40.00,0,-999,0,0.00
2013-5-31,60,47,39,-100,-100,-100,0,0,100,0.00,40.00,0,-999,0,0.00
2013-6-1,54,44,36,-100,-100,-100,0,0,100,0.00,40.00,0,-999,0,0.00
2013-6-2,59,45,33,-100,-100,-100,0,0,100,0.00,40.00,0,-999,0,0.00
2013-6-3,53,45,39,-100,-100,-100,0,0,100,0.00,40.00,0,-999,0,0.00
2013-6-4,58,46,37,-100,-100,-100,0,0,100,0.00,40.00,0,-999,0,0.00
2013-6-5,62,45,29,-100,-100,-100,0,0,100,0.00,40.00,0,-999,0,0.00
2013-6-6,64,48,32,-100,-100,-100,0,0,100,0.00,40.00,0,-999,0,0.00
2013-6-7,66,46,30,-100,-100,-100,0,0,100,0.00,40.00,0,-999,0,0.00
2013-6-8,68,54,39,-100,-100,-100,0,0,100,0.00,40.00,0,-999,0,0.00
2013-6-9,69,52,34,-100,-100,-100,0,0,100,0.00,40.00,0,-999,0,0.00
2013-6-10,65,50,34,-100,-100,-100,0,0,100,0.00,40.00,0,-999,0,0.00
2013-6-11,68,52,35,-100,-100,-100,0,0,100,0.00,40.00,0,-999,0,0.00
2013-6-12,68,62,52,-100,-100,-100,0,0,100,0.00,40.00,0,-999,0,0.00
2013-6-13,65,55,39,-100,-100,-100,0,0,100,0.00,40.00,0,-999,0,0.00
2013-6-14,67,59,32,-100,-100,-100,0,0,100,0.00,40.00,0,-999,0,0.00
2013-6-15,67,56,39,-100,-100,-100,0,0,100,0.00,40.00,0,-999,0,0.00
2013-6-16,72,66,36,-100,-100,-100,0,0,100,0.00,40.00,0,-999,0,0.00
2013-6-17,73,70,59,-100,-100,-100,0,0,100,0.00,40.00,0,-999,0,0.00
2013-6-18,72,67,58,-100,-100,-100,0,0,100,0.00,40.00,0,-999,0,0.00
2013-6-19,56,49,39,-100,-100,-100,0,0,100,0.00,40.00,0,-999,0,0.00
2013-6-20,60,49,41,-100,-100,-100,0,0,100,0.00,40.00,0,-999,0,0.00
2013-6-22,54,51,47,-100,-100,-100,0,0,100,0.00,40.00,0,-999,0,0.00
2013-6-23,57,48,41,-100,-100,-100,0,0,100,0.00,40.00,0,-999,0,0.00
2013-6-24,66,56,41,-100,-100,-100,0,0,100,0.00,40.00,0,-999,0,0.00
2013-6-25,69,63,51,-100,-100,-100,0,0,100,0.00,40.00,0,-999,0,0.00
2013-6-26,74,62,56,-100,-100,-100,0,0,100,0.00,40.00,0,-999,0,0.00
2013-6-27,65,58,49,-100,-100,-100,0,0,100,0.00,40.00,0,-999,0,0.00
2013-6-28,63,52,47,-100,-100,-100,0,0,100,0.00,40.00,0,-999,0,0.00
2013-6-29,65,54,46,-100,-100,-100,0,0,100,0.00,40.00,0,-999,0,0.00
2013-6-30,60,52,45,-100,-100,-100,0,0,100,0.00,40.00,0,-999,0,0.00
2013-7-1,49,45,40,-100,-100,-100,0,0,100,0.00,40.00,0,-999,0,0.00
2013-7-2,56,47,40,-100,-100,-100,0,0,100,0.00,40.00,0,-999,0,0.00
2013-7-3,59,49,42,-100,-100,-100,0,0,100,0.00,40.00,0,-999,0,0.00
2013-7-4,57,47,41,-100,-100,-100,0,0,100,0.00,40.00,0,-999,0,0.00
2013-7-5,54,48,42,-100,-100,-100,0,0,100,0.00,40.00,0,-999,0,0.00
2013-7-6,58,48,44,-100,-100,-100,0,0,100,0.00,40.00,0,-999,0,0.00
2013-7-7,54,47,41,-100,-100,-100,0,0,100,0.00,40.00,0,-999,0,0.00
2013-7-8,61,54,48,-100,-100,-100,0,0,100,0.00,40.00,0,-999,0,0.00
2013-7-9,67,57,44,-100,-100,-100,0,0,100,0.00,40.00,0,-999,0,0.00
2013-7-10,67,60,43,-100,-100,-100,0,0,100,0.00,40.00,0,-999,0,0.00
2013-7-11,75,68,56,-100,-100,-100,0,0,100,0.00,40.00,0,-999,0,0.00
2013-7-12,74,68,54,-100,-100,-100,0,0,100,0.00,40.00,0,-999,0,0.00
2013-7-13,70,63,53,-100,-100,-100,0,0,100,0.00,40.00,0,-999,0,0.00
2013-7-19,65,58,51,-100,-100,-100,0,0,100,0.00,40.00,0,-999,0,0.00
2013-7-20,65,56,45,-100,-100,-100,0,0,100,0.00,40.00,0,-999,0,0.00
2013-7-21,70,64,55,-100,-100,-100,0,0,100,0.00,40.00,0,-999,0,0.00
2013-7-22,70,66,51,-100,-100,-100,0,0,100,0.00,40.00,0,-999,0,0.00
2013-7-23,76,69,55,-100,-100,-100,0,0,100,0.00,40.00,0,-999,0,0.00
2013-7-24,75,70,65,-100,-100,-100,0,0,100,0.00,40.00,0,-999,0,0.00
2013-7-25,76,65,50,-100,-100,-100,0,0,100,0.00,40.00,0,-999,0,0.00
2013-7-26,62,56,50,-100,-100,-100,0,0,100,0.00,40.00,0,-999,0,0.00
2013-7-27,71,57,47,-100,-100,-100,0,0,100,0.00,40.00,0,-999,0,0.00
2013-7-28,74,57,47,-100,-100,-100,0,0,100,0.00,40.00,0,-999,0,0.00
2013-7-29,72,64,55,-100,-100,-100,0,0,100,0.00,40.00,0,-999,0,0.00
2013-7-30,70,63,54,-100,-100,-100,0,0,100,0.00,40.00,0,-999,0,0.00
2013-7-31,74,60,44,-100,-100,-100,0,0,100,0.00,40.00,0,-999,0,0.00
2013-8-1,69,59,45,-100,-100,-100,0,0,100,0.00,40.00,0,-999,0,0.00
2013-8-2,63,54,48,-100,-100,-100,0,0,100,0.00,40.00,0,-999,0,0.00
2013-8-3,52,52,52,-100,-100,-100,0,0,100,0.00,40.00,0,-999,0,0.00
2013-8-4,60,52,46,-100,-100,-100,0,0,100,0.00,40.00,0,-999,0,0.00
2013-8-5,55,51,48,-100,-100,-100,0,0,100,0.00,40.00,0,-999,0,0.00
2013-8-6,52,50,48,-100,-100,-100,0,0,100,0.00,40.00,0,-999,0,0.00
2013-8-7,58,54,48,-100,-100,-100,0,0,100,0.00,40.00,0,-999,0,0.00
2013-8-8,56,49,44,-100,-100,-100,0,0,100,0.00,40.00,0,-999,0,0.00
2013-8-9,59,53,49,-100,-100,-100,0,0,100,0.00,40.00,0,-999,0,0.00
2013-8-10,62,53,43,-100,-100,-100,0,0,100,0.00,40.00,0,-999,0,0.00
2013-8-11,51,47,44,-100,-100,-100,0,0,100,0.00,40.00,0,-999,0,0.00
2013-8-12,61,54,48,-100,-100,-100,0,0,100,0.00,40.00,0,-999,0,0.00
2013-8-13,57,53,48,-100,-100,-100,0,0,100,0.00,40.00,0,-999,0,0.00
2013-8-14,63,56,44,-100,-100,-100,0,0,100,0.00,40.00,0,-999,0,0.00
2013-8-15,66,59,48,-100,-100,-100,0,0,100,0.00,40.00,0,-999,0,0.00
2013-8-16,52,49,42,-100,-100,-100,0,0,100,0.00,40.00,0,-999,0,0.00
2013-8-17,62,55,47,-100,-100,-100,0,0,100,0.00,40.00,0,-999,0,0.00
2013-8-18,57,52,46,-100,-100,-100,0,0,100,0.00,40.00,0,-999,0,0.00
2013-8-19,51,48,46,-100,-100,-100,0,0,100,0.00,40.00,0,-999,0,0.00
2013-8-20,59,51,44,-100,-100,-100,0,0,100,0.00,40.00,0,-999,0,0.00
2013-8-21,50,47,44,-100,-100,-100,0,0,100,0.00,40.00,0,-999,0,0.00
2013-8-22,51,48,45,-100,-100,-100,0,0,100,0.00,40.00,0,-999,0,0.00
2013-8-25,70,61,50,-100,-100,-100,0,0,100,0.00,40.00,0,-999,0,0.00
2013-8-26,71,56,46,-100,-100,-100,0,0,100,0.00,40.00,0,-999,0,0.00
2013-8-27,52,48,44,-100,-100,-100,0,0,100,0.00,40.00,0,-999,0,0.00
2013-8-28,58,49,44,-100,-100,-100,0,0,100,0.00,40.00,0,-999,0,0.00
2013-8-29,50,48,46,-100,-100,-100,0,0,100,0.00,40.00,0,-999,0,0.00
2013-8-30,59,51,44,-100,-100,-100,0,0,100,0.00,40.00,0,-999,0,0.00
2013-8-31,57,49,43,-100,-100,-100,0,0,100,0.00,40.00,0,-999,0,0.00
2013-9-1,60,49,41,-100,-100,-100,0,0,100,0.00,40.00,0,-999,0,0.00
2013-9-2,52,49,45,-100,-100,-100,0,0,100,0.00,40.00,0,-999,0,0.00
2013-9-3,54,49,45,-100,-100,-100,0,0,100,0.00,40.00,0,-999,0,0.00
2013-9-4,57,48,43,-100,-100,-100,0,0,100,0.00,40.00,0,-999,0,0.00
2013-9-5,55,47,41,-100,-100,-100,0,0,100,0.00,40.00,0,-999,0,0.00
2013-9-6,52,48,42,-100,-100,-100,0,0,100,0.00,40.00,0,-999,0,0.00
2013-9-7,54,46,43,-100,-100,-100,0,0,100,0.00,40.00,0,-999,0,0.00
2013-9-8,57,48,42,-100,-100,-100,0,0,100,0.00,40.00,0,-999,0,0.00
2013-9-9,50,48,47,-100,-100,-100,0,0,100,0.00,40.00,0,-999,0,0.00
2013-9-10,54,48,45,-100,-100,-100,0,0,100,0.00,40.00,0,-999,0,0.00
2013-9-11,54,46,44,-100,-100,-100,0,0,100,0.00,40.00,0,-999,0,0.00
2013-9-12,48,44,42,-100,-100,-100,0,0,100,0.00,40.00,0,-999,0,0.00
2013-9-13,51,48,45,-100,-100,-100,0,0,100,0.00,40.00,0,-999,0,0.00
2013-9-14,51,46,41,-100,-100,-100,0,0,100,0.00,40.00,0,-999,0,0.00
2013-9-15,56,47,39,-100,-100,-100,0,0,100,0.00,40.00,0,-999,0,0.00
2013-9-16,56,44,32,-100,-100,-100,0,0,100,0.00,40.00,0,-999,0,0.00
2013-9-17,52,46,40,-100,-100,-100,0,0,100,0.00,40.00,0,-999,0,0.00
2013-9-18,43,39,36,-100,-100,-100,0,0,100,0.00,40.00,0,-999,0,0.00
2013-9-19,49,39,28,-100,-100,-100,0,0,100,0.00,40.00,0,-999,0,0.00
2013-9-20,43,40,34,-100,-100,-100,0,0,100,0.00,40.00,0,-999,0,0.00
2013-9-21,41,38,34,-100,-100,-100,0,0,100,0.00,40.00,0,-999,0,0.00
2013-9-22,40,34,29,-100,-100,-100,0,0,100,0.00,40.00,0,-999,0,0.00
2013-9-23,42,37,29,-100,-100,-100,0,0,100,0.00,40.00,0,-999,0,0.00
2013-9-24,41,40,37,-100,-100,-100,0,0,100,0.00,40.00,0,-999,0,0.00
2013-9-28,46,42,31,-100,-100,-100,0,0,100,0.00,40.00,0,-999,0,0.00
2013-9-29,43,40,36,-100,-100,-100,0,0,100,0.00,40.00,0,-999,0,0.00
2013-9-30,43,42,39,-100,-100,-100,0,0,100,0.00,40.00,0,-999,0,0.00
2013-10-1,41,39,37,-100,-100,-100,0,0,100,0.00,40.00,0,-999,0,0.00
2013-10-2,41,36,32,-100,-100,-100,0,0,100,0.00,40.00,0,-999,0,0.00
2013-10-4,45,39,33,-100,-100,-100,0,0,100,0.00,40.00,0,-999,0,0.00
2013-10-5,42,37,32,-100,-100,-100,0,0,100,0.00,40.00,0,-999,0,0.00
2013-10-6,40,36,33,-100,-100,-100,0,0,100,0.00,40.00,0,-999,0,0.00
2013-10-7,46,38,33,-100,-100,-100,0,0,100,0.00,40.00,0,-999,0,0.00
2013-10-8,42,38,36,-100,-100,-100,0,0,100,0.00,40.00,0,-999,0,0.00
2013-10-9,41,36,33,-100,-100,-100,0,0,100,0.00,40.00,0,-999,0,0.00
2013-10-10,37,35,30,-100,-100,-100,0,0,100,0.00,40.00,0,-999,0,0.00
2013-10-11,45,39,36,-100,-100,-100,0,0,100,0.00,40.00,0,-999,0,0.00
2013-10-12,38,38,37,-100,-100,-100,0,0,100,0.00,40.00,0,-999,0,0.00
2013-10-13,41,37,34,-100,-100,-100,0,0,100,0.00,40.00,0,-999,0,0.00
2013-10-14,41,36,32,-100,-100,-100,0,0,100,0.00,40.00,0,-999,0,0.00
2013-10-15,44,41,38,-100,-100,-100,0,0,100,0.00,40.00,0,-999,0,0.00
2013-10-16,43,40,37,-100,-100,-100,0,0,100,0.00,40.00,0,-999,0,0.00
2013-10-17,42,41,40,-100,-100,-100,0,0,100,0.00,40.00,0,-999,0,0.00
2013-10-18,38,36,35,-100,-100,-100,0,0,100,0.00,40.00,0,-999,0,0.00
2013-10-19,36,35,34,-100,-100,-100,0,0,100,0.00,40.00,0,-999,0,0.00
2013-10-20,36,34,32,-100,-100,-100,0,0,100,0.00,40.00,0,-999,0,0.00
2013-10-21,36,32,30,-100,-100,-100,0,0,100,0.00,40.00,0,-999,0,0.00
2013-10-22,35,32,31,-100,-100,-100,0,0,100,0.00,40.00,0,-999,0,0.00
2013-10-24,32,31,30,-100,-100,-100,0,0,100,0.00,40.00,0,-999,0,0.00
2013-10-25,33,31,27,-100,-100,-100,0,0,100,0.00,40.00,0,-999,0,0.00
2013-10-26,37,36,35,-100,-100,-100,0,0,100,0.00,40.00,0,-999,0,0.00
2013-10-27,40,37,34,-100,-100,-100,0,0,100,0.00,40.00,0,-999,0,0.00
2013-10-28,41,40,37,-100,-100,-100,0,0,100,0.00,40.00,0,-999,0,0.00
2013-10-29,37,35,31,-100,-100,-100,0,0,100,0.00,40.00,0,-999,0,0.00
2013-10-31,37,34,32,-100,-100,-100,0,0,100,0.00,40.00,0,-999,0,0.00
2013-11-1,35,32,30,-100,-100,-100,0,0,100,0.00,40.00,0,-999,0,0.00
2013-11-2,33,31,26,-100,-100,-100,0,0,100,0.00,40.00,0,-999,0,0.00
2013-11-3,39,36,33,-100,-100,-100,0,0,100,0.00,40.00,0,-999,0,0.00
2013-11-4,36,35,34,-100,-100,-100,0,0,100,0.00,40.00,0,-999,0,0.00
2013-11-16,15,14,13,-100,-100,-100,0,0,100,0.00,40.00,0,-999,0,0.00
2013-11-20,7,6,6,-100,-100,-100,0,0,100,0.00,40.00,0,-999,0,0.00
2013-11-21,28,25,23,-100,-100,-100,0,0,100,0.00,40.00,0,-999,0,0.00
2013-11-22,31,24,14,-100,-100,-100,0,0,100,0.00,40.00,0,-999,0,0.00
2013-11-23,23,18,13,-100,-100,-100,0,0,100,0.00,40.00,0,-999,0,0.00
2013-11-24,28,27,25,-100,-100,-100,0,0,100,0.00,40.00,0,-999,0,0.00
2013-11-25,26,25,24,-100,-100,-100,0,0,100,0.00,40.00,0,-999,0,0.00
2013-11-26,25,24,23,-100,-100,-100,0,0,100,0.00,40.00,0,-999,0,0.00
2013-11-27,25,23,17,-100,-100,-100,0,0,100,0.00,40.00,0,-999,0,0.00
2013-11-29,-4,-4,-4,-100,-100,-100,0,0,100,0.00,40.00,0,-999,0,0.00
2013-12-5,33,30,29,-100,-100,-100,0,0,100,0.00,40.00,0,-999,0,0.00
2013-12-8,24,24,24,-100,-100,-100,0,0,100,0.00,40.00,0,-999,0,0.00
2013-12-11,20,14,4,-100,-100,-100,0,0,100,0.00,40.00,0,-999,0,0.00
2013-12-13,9,9,8,-100,-100,-100,0,0,100,0.00,40.00,0,-999,0,0.00
2013-12-14,11,11,10,-100,-100,-100,0,0,100,0.00,40.00,0,-999,0,0.00
2013-12-15,10,9,8,-100,-100,-100,0,0,100,0.00,40.00,0,-999,0,0.00
2013-12-16,7,3,-1,-100,-100,-100,0,0,100,0.00,40.00,0,-999,0,0.00
2013-12-17,-1,-4,-6,-100,-100,-100,0,0,100,0.00,40.00,0,-999,0,0.00
2013-12-18,-7,-7,-7,-100,-100,-100,0,0,100,0.00,40.00,0,-999,0,0.00
2013-12-19,12,12,11,-100,-100,-100,0,0,100,0.00,40.00,0,-999,0,0.00
2013-12-20,27,27,27,-100,-100,-100,0,0,100,0.00,40.00,0,-999,0,0.00
2013-12-21,31,29,28,-100,-100,-100,0,0,100,0.00,40.00,0,-999,0,0.00
2013-12-22,25,24,21,-100,-100,-100,0,0,100,0.00,40.00,0,-999,0,0.00
2013-12-23,21,12,4,-100,-100,-100,0,0,100,0.00,40.00,0,-999,0,0.00
2013-12-31,25,23,19,-100,-100,-100,0,0,100,0.00,40.00,0,-999,0,0.00
2014-1-1,28,27,26,-100,-100,-100,0,0,100,0.00,40.00,0,-999,0,0.00
2014-1-2,25,24,21,-100,-100,-100,0,0,100,0.00,40.00,0,-999,0,0.00